Home > Weather > Bamyan > Past weeks

Flag for Afghanistan Past Weather in Bamyan, Afghanistan — Yesterday and Last 2 Weeks

Now
75 °F

Sunny.


Feels Like: 78 °F
Forecast: 45 / 67 °F
Wind: 3 mph from North

Location: Termez Airport

Current Time: May 25, 2016 at 7:51:18 AM

Latest Report: May 25, 2016 at 7:00 AM


Visibility: 10 mi

Pressure: 29.71 "Hg (22.31 "Hg at 2492m altitude)

Humidity: 54%

Dew Point: 57 °F

Location of BamyanLocation

Past Weather in Bamyan — Graph

°F

Bamyan Temperature Yesterday

Maximum temperature yesterday: 93 °F (at 2:30 PM)
Minimum temperature yesterday: 68 °F (at 4:00 AM)
Average temperature yesterday: 81 °F

High & Low Weather Summary for the Past Weeks

 TemperatureHumidityPressure
High100 °F (May 17, 2:30 PM)88% (May 14, 1:30 AM)30.18 "Hg (May 14, 1:30 AM)
Low61 °F (May 19, 5:30 AM)11% (May 22, 12:30 PM)29.68 "Hg (May 17, 4:00 PM)
Average81 °F38%29.82 "Hg
* Reported May 10 6:30 AM — May 25 6:30 AM, Bamyan, Weather by CustomWeather, © 2016

Note: Actual official high and low records may vary slightly from our data, if they occured in-between our weather recording intervals... More about our weather records

Advertising

Bamyan Weather History for the Previous 24 Hours

Scroll right to see more
 ConditionsComfort  
Time TempWeatherWind HumidityBarometerVisibility
6:30 AM
Wed, May 25
72 °FSunny.2 mph65%29.71 "Hg10 mi
5:30 AM66 °FSunny.2 mph73%29.71 "Hg10 mi
4:30 AM68 °FClear.6 mph64%29.68 "Hg10 mi
3:30 AM68 °FClear.7 mph56%29.68 "Hg10 mi
2:30 AM68 °FClear.7 mph56%29.68 "Hg10 mi
1:30 AM72 °FClear.5 mph47%29.71 "Hg10 mi
12:30 AM72 °FClear.2 mph47%29.71 "Hg10 mi
11:30 PM
Tue, May 24
73 °FClear.2 mph38%29.71 "Hg10 mi
10:30 PM75 °FClear.No wind41%29.71 "Hg10 mi
10:00 PM77 °FClear.No wind36%29.71 "Hg10 mi
9:30 PM79 °FClear.No wind30%29.71 "Hg10 mi
9:00 PM79 °FClear.No wind37%29.71 "Hg10 mi
8:30 PM81 °FClear.No wind32%29.71 "Hg10 mi
8:00 PM81 °FClear.No wind28%29.71 "Hg10 mi
7:30 PM82 °FClear.2 mph30%29.71 "Hg10 mi
7:00 PM82 °FSunny.3 mph35%29.71 "Hg10 mi
6:00 PM90 °FPassing clouds.5 mph20%29.71 "HgN/A
5:30 PM91 °FPassing clouds.3 mph21%29.71 "HgN/A
5:00 PM93 °FSunny.2 mph19%29.71 "Hg10 mi
4:30 PM93 °FSunny.2 mph16%29.71 "Hg10 mi
4:00 PM91 °FPassing clouds.7 mph21%29.71 "HgN/A
3:30 PM93 °FPassing clouds.7 mph20%29.74 "HgN/A
3:00 PM93 °FPassing clouds.5 mph20%29.74 "HgN/A
2:30 PM93 °FSunny.3 mph21%29.74 "Hg10 mi
2:00 PM91 °FSunny.6 mph24%29.77 "Hg10 mi
1:30 PM91 °FPassing clouds.6 mph26%29.77 "HgN/A
1:00 PM90 °FSunny.5 mph29%29.80 "Hg10 mi
12:30 PM90 °FSunny.6 mph26%29.80 "Hg10 mi
12:00 PM90 °FSunny.6 mph27%29.80 "Hg10 mi
11:30 AM90 °FSunny.3 mph26%29.83 "Hg10 mi
11:00 AM88 °FPassing clouds.5 mph29%29.83 "HgN/A
10:30 AM88 °FPassing clouds.3 mph29%29.83 "HgN/A
10:00 AM86 °FSunny.2 mph31%29.83 "Hg10 mi
9:30 AM84 °FSunny.3 mph33%29.86 "Hg10 mi
9:00 AM82 °FPassing clouds.5 mph37%29.86 "HgN/A
8:30 AM82 °FSunny.2 mph37%29.86 "Hg10 mi
8:00 AM81 °FSunny.6 mph42%29.86 "Hg10 mi
7:30 AM79 °FPassing clouds.7 mph45%29.86 "HgN/A
7:00 AM75 °FSunny.8 mph54%29.86 "Hg10 mi
Weather by CustomWeather, © 2016

See weather overviewHow to use our weather pages